This demonstration page uses our WeatherBlox Daily Observations layout. Learn more.

Left ArrowRight Arrow

Hourly Observations for May 6, 2015

Temp ( °F °C ) Dew Point ( °F °C ) Humidity (%) Winds ( mph kmh ) Pressure ( in mb ) Visibility ( mi km ) Precip ( " mm )
12:48 am 00:48 Cloudy with Light Rain 61 16 57 14 88 88 SSE 16 26 29.85 1011 10 16 0.00 0.00
12:53 am 00:53 Cloudy with Light Rain 61 16.1 57 13.9 87 87 SSE 15 24 29.85 1011 10 16 0.01 0.25
1:53 am 01:53 Cloudy 61 16.1 57 13.9 87 87 SSE 15 24 29.83 1010 10 16 0.02 0.51
2:35 am 02:35 Cloudy 61 16.1 57 13.9 87 87 SSE 15 24 29.80 1009 10 16 0.00 0.00
2:53 am 02:53 Cloudy 61 16.1 58 14.4 90 90 SSE 15 24 29.80 1009 10 16 0.00 0.00
3:53 am 03:53 Cloudy 61 16.1 58 14.4 90 90 SE 15 24 29.78 1009 10 16 0.00 0.00
4:53 am 04:53 Cloudy 61 16.1 58 14.4 90 90 SSE 10 17 29.76 1008 10 16 0.00 0.00
5:53 am 05:53 Cloudy 61 16.1 58 14.4 90 90 SE 9 15 29.74 1007 10 16 0.00 0.00
6:49 am 06:49 Cloudy 61 16 57 14 88 88 SE 14 22 29.71 1006 10 16 0.00 0.00
6:53 am 06:53 Cloudy 60 15.6 57 13.9 90 90 SE 13 20 29.74 1007 10 16 0.00 0.00
7:11 am 07:11 Cloudy 60 15.6 57 13.9 90 90 SSE 9 15 29.71 1006 10 16 0.00 0.00
7:35 am 07:35 Cloudy 60 15.6 58 14.4 93 93 SSE 10 17 29.71 1006 10 16 0.00 0.00
7:44 am 07:44 Cloudy 61 16 57 14 88 88 SSE 10 17 29.71 1006 10 16 0.00 0.00
7:53 am 07:53 Cloudy 60 15.6 58 14.4 93 93 SSE 8 13 29.74 1007 10 16 0.00 0.00
8:24 am 08:24 Cloudy 61 16 57 14 88 88 SSE 10 17 29.71 1006 10 16 0.00 0.00
8:31 am 08:31 Cloudy with Light Rain 61 16.1 58 14.4 90 90 S 13 20 29.71 1006 10 16 0.00 0.03
8:53 am 08:53 Cloudy with Light Rain 60 15.6 58 14.4 93 93 S 13 20 29.73 1007 10 16 0.01 0.25
9:21 am 09:21 Cloudy with Light Rain 60 15.6 58 14.4 93 93 S 13 20 29.68 1005 8 13 0.01 0.25
9:53 am 09:53 Cloudy with Light Rain 60 15.6 58 14.4 93 93 S 13 20 29.74 1007 6 10 0.03 0.76
10:28 am 10:28 Cloudy 63 17 59 15 88 88 S 15 24 29.71 1006 10 16 0.00 0.00
10:48 am 10:48 Cloudy 63 17 57 14 83 83 S 17 28 29.71 1006 10 16 0.00 0.00
10:53 am 10:53 Cloudy 63 17.2 57 13.9 81 81 S 20 31 29.73 1007 10 16 0.01 0.25
11:49 am 11:49 Cloudy 63 17 57 14 83 83 S 14 22 29.71 1006 10 16 0.00 0.00
11:53 am 11:53 Cloudy 62 16.7 58 14.4 86 86 S 14 22 29.74 1007 10 16 0.00 0.00
12:46 pm 12:46 Cloudy with Light Rain 61 16.1 59 15 93 93 S 12 19 29.68 1005 4 6 0.00 0.03
12:53 pm 12:53 Cloudy with Light Rain 61 16.1 59 15 93 93 S 14 22 29.73 1007 3 5 0.00 0.03
1:53 pm 13:53 Cloudy 64 17.8 61 16.1 90 90 SSE 14 22 29.70 1006 10 16 0.01 0.25
2:00 pm 14:00 Cloudy 64 18 61 16 88 88 S 13 20 29.68 1005 10 16 0.00 0.00
2:23 pm 14:23 Cloudy 69 20.6 62 16.7 78 78 S 20 31 29.62 1003 10 16 0.00 0.00
2:53 pm 14:53 Mostly Cloudy 67 19.4 60 15.6 79 79 S 20 31 29.66 1004 10 16 0.00 0.00
3:32 pm 15:32 Mostly Cloudy with Nearby Thunderstorms 66 19 61 16 83 83 SSE 17 28 29.65 1004 10 16 0.00 0.00
3:44 pm 15:44 Mostly Cloudy with Thunderstorms 66 19 61 16 83 83 SSE 15 24 29.65 1004 7 11 0.00 0.00
3:53 pm 15:53 Cloudy with Thunderstorms 65 18.3 61 16.1 87 87 SSE 18 30 29.64 1004 10 16 0.01 0.25
4:06 pm 16:06 Cloudy with Nearby Thunderstorms 64 18 61 16 88 88 SSE 17 28 29.65 1004 6 10 0.00 0.00
4:14 pm 16:14 Cloudy with Nearby Thunderstorms 64 18 63 17 94 94 S 13 20 29.65 1004 2 3 0.00 0.00
4:32 pm 16:32 Cloudy with Thunderstorms 64 18 63 17 94 94 SSE 7 11 29.65 1004 2 2 0.00 0.00
4:36 pm 16:36 Cloudy with Thunderstorms 64 18 63 17 94 94 ESE 7 11 29.62 1003 2 3 0.00 0.00
4:40 pm 16:40 Cloudy with Strong Thunderstorms 63 17 63 17 100 100 E 10 17 29.62 1003 2 3 0.00 0.00
4:53 pm 16:53 Windy with Storms Likely 63 17.2 62 16.7 97 97 ESE 20 31 29.61 1003 1 2 0.41 10.41
4:57 pm 16:57 Cloudy with Thunderstorms 64 17.8 62 16.7 93 93 SE 18 30 29.62 1003 3 5 0.00 0.03
5:13 pm 17:13 Cloudy with Nearby Thunderstorms 64 17.8 62 16.7 93 93 SSE 17 28 29.59 1002 3 5 0.05 1.27
5:21 pm 17:21 Cloudy with Nearby Thunderstorms 64 17.8 62 16.7 93 93 SSE 20 31 29.59 1002 4 6 0.06 1.52
5:23 pm 17:23 Cloudy with Light Rain 64 17.8 61 16.1 90 90 SSE 18 30 29.59 1002 4 6 0.06 1.52
5:35 pm 17:35 Cloudy with Light Rain 63 17.2 61 16.1 93 93 SSE 20 31 29.59 1002 7 11 0.07 1.78
5:53 pm 17:53 Cloudy with Light Rain 63 17.2 60 15.6 90 90 SE 15 24 29.60 1002 8 13 0.09 2.29
6:53 pm 18:53 Mostly Cloudy 59 15 56 13.3 90 90 SSE 17 28 29.60 1003 10 16 0.01 0.25
7:53 pm 19:53 Mostly Sunny 59 15 56 13.3 90 90 SE 13 20 29.59 1002 10 16 0.00 0.00
8:53 pm 20:53 Cloudy 59 15 57 13.9 93 93 SE 14 22 29.59 1002 10 16 0.00 0.00
9:42 pm 21:42 Mostly Cloudy with Nearby Thunderstorms 61 16 57 14 88 88 SSE 13 20 29.59 1002 10 16 0.00 0.00
9:53 pm 21:53 Mostly Cloudy with Light Rain 60 15.6 58 14.4 93 93 SE 15 24 29.60 1002 6 10 0.02 0.51
10:53 pm 22:53 Mostly Cloudy with Thunderstorms 61 16.1 59 15 93 93 SSE 14 22 29.62 1003 8 13 0.03 0.76
11:51 pm 23:51 Cloudy with Thunderstorms 63 17 59 15 88 88 SE 16 26 29.59 1002 2 3 0.13 3.30
11:53 pm 23:53 Cloudy with Thunderstorms 62 16.7 59 15 90 90 S 14 22 29.59 1002 2 3 0.13 3.30

Powered by AerisWeather